When you browse on this site, cookies collect data to enhance your experience and personalize the content and advertising you see.
Visit our Privacy Policy to learn more. By continuing to use the site, you agree to this use of cookies and data.
  • în România
  • Lista ţărilor
  • Pe 7 zile
  • Temperatura apei
  • Hartă satelitară
  • Meteo pe hartă
  • Widget-uri
  • user-avatar
    Intrare

    Meteo pe oră la Novokarachevo

    Astăzi, 23 Iulie, Marţi

    Timp Temperatura Precipitaţii Vânt Presiune Umiditate
    00:00 +15°C° 0 mm 2 m/s 742 mmHg 94%
    01:00 +14°C° 0 mm 2 m/s 742 mmHg 94%
    02:00 +14°C° 0 mm 2 m/s 742 mmHg 95%
    03:00 +14°C° 0 mm 1 m/s 742 mmHg 96%
    04:00 +13°C° 0 mm 1 m/s 742 mmHg 96%
    05:00 +14°C° 0 mm 2 m/s 743 mmHg 96%
    06:00 +15°C° 0 mm 2 m/s 743 mmHg 95%
    07:00 +16°C° 0 mm 2 m/s 743 mmHg 94%
    08:00 +17°C° 0.1 mm 2 m/s 743 mmHg 91%
    09:00 +18°C° 0.1 mm 3 m/s 743 mmHg 88%
    10:00 +19°C° 0.1 mm 3 m/s 743 mmHg 85%
    11:00 +19°C° 0.6 mm 4 m/s 743 mmHg 83%
    12:00 +20°C° 0.6 mm 4 m/s 743 mmHg 82%
    13:00 +20°C° 0.6 mm 4 m/s 743 mmHg 81%
    14:00 +20°C° 0.8 mm 4 m/s 744 mmHg 81%
    15:00 +20°C° 0.8 mm 4 m/s 744 mmHg 82%
    16:00 +20°C° 0.8 mm 4 m/s 744 mmHg 82%
    17:00 +20°C° 0.4 mm 4 m/s 744 mmHg 85%
    18:00 +19°C° 0.4 mm 3 m/s 744 mmHg 88%
    19:00 +19°C° 0.4 mm 3 m/s 744 mmHg 90%
    20:00 +18°C° 0 mm 3 m/s 744 mmHg 92%
    21:00 +16°C° 0 mm 3 m/s 744 mmHg 93%
    22:00 +14°C° 0 mm 3 m/s 745 mmHg 95%
    23:00 +14°C° 0 mm 3 m/s 745 mmHg 95%

    Mâine, 24 Iulie, Miercuri

    Timp Temperatura Precipitaţii Vânt Presiune Umiditate
    00:00 +15°C° 0 mm 2 m/s 745 mmHg 96%
    01:00 +14°C° 0 mm 2 m/s 745 mmHg 96%
    02:00 +14°C° 0 mm 2 m/s 745 mmHg 97%
    03:00 +14°C° 0 mm 2 m/s 745 mmHg 97%
    04:00 +13°C° 0 mm 2 m/s 745 mmHg 97%
    05:00 +15°C° 0 mm 2 m/s 746 mmHg 96%
    06:00 +16°C° 0 mm 2 m/s 746 mmHg 95%
    07:00 +17°C° 0 mm 2 m/s 746 mmHg 94%
    08:00 +18°C° 0 mm 2 m/s 746 mmHg 88%
    09:00 +20°C° 0 mm 2 m/s 746 mmHg 83%
    10:00 +21°C° 0 mm 2 m/s 747 mmHg 77%
    11:00 +23°C° 0.3 mm 2 m/s 747 mmHg 77%
    12:00 +22°C° 0.3 mm 3 m/s 747 mmHg 76%
    13:00 +24°C° 0.3 mm 3 m/s 747 mmHg 76%
    14:00 +24°C° 0.6 mm 3 m/s 747 mmHg 75%
    15:00 +24°C° 0.6 mm 3 m/s 747 mmHg 74%
    16:00 +25°C° 0.6 mm 3 m/s 747 mmHg 74%
    17:00 +24°C° 0.2 mm 2 m/s 747 mmHg 77%
    18:00 +24°C° 0.2 mm 2 m/s 747 mmHg 81%
    19:00 +23°C° 0.2 mm 2 m/s 747 mmHg 84%
    20:00 +20°C° 0 mm 2 m/s 747 mmHg 86%
    21:00 +19°C° 0 mm 2 m/s 747 mmHg 87%
    22:00 +18°C° 0 mm 2 m/s 747 mmHg 89%
    23:00 +17°C° 0 mm 2 m/s 748 mmHg 90%

    Poimâine, 25 Iulie, Joi

    Timp Temperatura Precipitaţii Vânt Presiune Umiditate
    00:00 +17°C° 0 mm 2 m/s 748 mmHg 90%
    01:00 +16°C° 0 mm 2 m/s 748 mmHg 91%
    02:00 +16°C° 0 mm 2 m/s 748 mmHg 91%
    03:00 +16°C° 0 mm 2 m/s 748 mmHg 91%
    04:00 +15°C° 0 mm 2 m/s 748 mmHg 91%
    05:00 +16°C° 0 mm 2 m/s 748 mmHg 90%
    06:00 +18°C° 0 mm 2 m/s 749 mmHg 88%
    07:00 +19°C° 0 mm 3 m/s 749 mmHg 87%
    08:00 +20°C° 0 mm 3 m/s 749 mmHg 81%
    09:00 +22°C° 0 mm 3 m/s 749 mmHg 75%
    10:00 +25°C° 0 mm 3 m/s 749 mmHg 70%
    11:00 +26°C° 0 mm 3 m/s 749 mmHg 65%
    12:00 +26°C° 0 mm 3 m/s 749 mmHg 60%
    13:00 +27°C° 0 mm 3 m/s 749 mmHg 55%
    14:00 +27°C° 0 mm 3 m/s 749 mmHg 57%
    15:00 +27°C° 0 mm 3 m/s 749 mmHg 59%
    16:00 +28°C° 0 mm 3 m/s 749 mmHg 61%
    17:00 +26°C° 0 mm 3 m/s 749 mmHg 66%
    18:00 +25°C° 0 mm 3 m/s 749 mmHg 72%
    19:00 +24°C° 0 mm 3 m/s 749 mmHg 77%
    20:00 +22°C° 0 mm 3 m/s 749 mmHg 79%
    21:00 +20°C° 0 mm 2 m/s 749 mmHg 81%
    22:00 +18°C° 0 mm 2 m/s 749 mmHg 83%
    23:00 +18°C° 0 mm 2 m/s 749 mmHg 83%

    26 Iulie, Vineri

    Timp Temperatura Precipitaţii Vânt Presiune Umiditate
    00:00 +18°C° 0 mm 3 m/s 749 mmHg 84%
    01:00 +17°C° 0 mm 3 m/s 749 mmHg 84%
    02:00 +17°C° 0 mm 2 m/s 749 mmHg 84%
    03:00 +16°C° 0 mm 2 m/s 749 mmHg 83%
    04:00 +16°C° 0 mm 2 m/s 749 mmHg 82%
    05:00 +18°C° 0 mm 1 m/s 749 mmHg 79%
    06:00 +20°C° 0 mm 1 m/s 749 mmHg 76%
    07:00 +21°C° 0 mm 1 m/s 749 mmHg 73%
    08:00 +22°C° 0 mm 1 m/s 749 mmHg 69%
    09:00 +24°C° 0 mm 1 m/s 749 mmHg 64%
    10:00 +25°C° 0 mm 1 m/s 749 mmHg 60%
    11:00 +26°C° 0 mm 2 m/s 749 mmHg 58%
    12:00 +27°C° 0 mm 2 m/s 749 mmHg 56%
    13:00 +27°C° 0 mm 2 m/s 748 mmHg 55%
    14:00 +27°C° 0 mm 2 m/s 748 mmHg 55%
    15:00 +27°C° 0 mm 2 m/s 748 mmHg 55%
    16:00 +28°C° 0 mm 2 m/s 747 mmHg 56%
    17:00 +27°C° 0 mm 2 m/s 747 mmHg 62%
    18:00 +26°C° 0 mm 2 m/s 747 mmHg 69%
    19:00 +24°C° 0 mm 2 m/s 747 mmHg 76%
    20:00 +23°C° 0 mm 2 m/s 747 mmHg 79%
    21:00 +20°C° 0 mm 2 m/s 746 mmHg 83%
    22:00 +19°C° 0 mm 2 m/s 746 mmHg 86%
    23:00 +18°C° 0 mm 2 m/s 746 mmHg 87%

    27 Iulie, Sâmbătă

    Timp Temperatura Precipitaţii Vânt Presiune Umiditate
    00:00 +19°C° 0 mm 1 m/s 746 mmHg 87%
    01:00 +18°C° 0 mm 1 m/s 746 mmHg 88%
    02:00 +18°C° 0 mm 1 m/s 745 mmHg 87%
    03:00 +18°C° 0 mm 1 m/s 745 mmHg 87%
    04:00 +16°C° 0 mm 1 m/s 745 mmHg 86%
    05:00 +16°C° 0 mm 0 m/s 745 mmHg 84%
    06:00 +18°C° 0 mm 0 m/s 745 mmHg 81%
    07:00 +19°C° 0 mm 0 m/s 744 mmHg 78%
    08:00 +20°C° 0.1 mm 0 m/s 744 mmHg 75%
    09:00 +22°C° 0.1 mm 0 m/s 744 mmHg 72%
    10:00 +23°C° 0.1 mm 0 m/s 743 mmHg 69%
    11:00 +23°C° 0.3 mm 0 m/s 743 mmHg 65%
    12:00 +24°C° 0.3 mm 0 m/s 743 mmHg 62%
    13:00 +27°C° 0.3 mm 1 m/s 742 mmHg 58%
    14:00 +27°C° 0.2 mm 1 m/s 742 mmHg 58%
    15:00 +25°C° 0.2 mm 0 m/s 741 mmHg 58%
    16:00 +25°C° 0.2 mm 0 m/s 741 mmHg 58%
    17:00 +25°C° 0.4 mm 1 m/s 740 mmHg 65%
    18:00 +24°C° 0.4 mm 1 m/s 740 mmHg 73%
    19:00 +23°C° 0.4 mm 1 m/s 739 mmHg 81%
    20:00 +22°C° 0.1 mm 1 m/s 739 mmHg 82%
    21:00 +20°C° 0.1 mm 1 m/s 738 mmHg 84%
    22:00 +19°C° 0.1 mm 1 m/s 738 mmHg 86%
    23:00 +18°C° 0 mm 1 m/s 737 mmHg 86%

    28 Iulie, Duminică

    Timp Temperatura Precipitaţii Vânt Presiune Umiditate
    00:00 +18°C° 0 mm 1 m/s 737 mmHg 87%
    01:00 +18°C° 0 mm 1 m/s 736 mmHg 88%
    02:00 +16°C° 0 mm 1 m/s 736 mmHg 90%
    03:00 +16°C° 0 mm 2 m/s 735 mmHg 91%
    04:00 +15°C° 0 mm 2 m/s 735 mmHg 93%
    05:00 +16°C° 0.2 mm 2 m/s 734 mmHg 92%
    06:00 +17°C° 0.2 mm 3 m/s 734 mmHg 90%
    07:00 +18°C° 0.2 mm 3 m/s 733 mmHg 89%
    08:00 +19°C° 0.8 mm 3 m/s 733 mmHg 87%
    09:00 +20°C° 0.8 mm 4 m/s 732 mmHg 85%
    10:00 +21°C° 0.8 mm 4 m/s 732 mmHg 82%
    11:00 +21°C° 1.6 mm 4 m/s 731 mmHg 82%
    12:00 +22°C° 1.6 mm 4 m/s 731 mmHg 81%
    13:00 +22°C° 1.6 mm 3 m/s 731 mmHg 80%
    14:00 +21°C° 1.2 mm 3 m/s 731 mmHg 83%
    15:00 +21°C° 1.2 mm 3 m/s 730 mmHg 85%
    16:00 +20°C° 1.2 mm 3 m/s 730 mmHg 87%
    17:00 +18°C° 0.5 mm 4 m/s 730 mmHg 90%
    18:00 +15°C° 0.5 mm 4 m/s 730 mmHg 93%
    19:00 +13°C° 0.5 mm 4 m/s 730 mmHg 96%
    20:00 +13°C° 0.5 mm 4 m/s 730 mmHg 97%
    21:00 +12°C° 0.5 mm 4 m/s 730 mmHg 97%
    22:00 +12°C° 0.5 mm 4 m/s 730 mmHg 97%
    23:00 +12°C° 0.4 mm 4 m/s 730 mmHg 97%
    Arată mai mult